Notices

What's New in latest Release from April 7th, 2021:

- Updated Glossary, including Speed of Maximum Gust, and Total Hourly Precipitation

- Updated national and regional climate services offices contacts and prices information

- Addition of station inventory lists for 1981-2010, 1971-2000, and 1961-1990 Normals.

If you haven't already, please take our survey and provide feedback about our website: https://eccc.sondage-survey.ca/f/LanguageSelection.aspx?s=442ca660-fcf1-47c0-95a9-59707d6fd709

Hourly Data Report for November 25, 2019

VICTORIA UNIVERSITY CS
BRITISH COLUMBIA
Current Station Operator: ECCC - MSC

48°27'25.200" N
123°18'16.600" W
60.10 m
1018598
71783
WYJ

Download Data

Hourly Data (November 2019)
Hourly Data Report for November 25, 2019
TIME
LST
Temp Definition
°C
Dew Point Definition
°C
Rel Hum Definition
%
Precip. Amount Definition
mm

Wind Dir Definition
10's deg

Wind Spd Definition
km/h
Visibility Definition
km
Stn Press Definition
kPa
Hmdx Definition


Wind Chill Definition


Weather Definition


00:00 5.4 3.9 90 0.0 26 6   101.28     LegendNANA
01:00 6.0 3.4 84 0.0 28 6   101.27     LegendNANA
02:00 5.9 3.0 82 0.0 30 5   101.29     LegendNANA
03:00 5.7 3.2 84 0.0 28 5   101.30     LegendNANA
04:00 4.0 2.4 89 0.0 27 5   101.25     LegendNANA
05:00 2.3 1.7 95 0.0 28 4   101.25     LegendNANA
06:00 1.9 1.4 96 0.0 28 4   101.24     LegendNANA
07:00 1.9 1.2 95 0.0 25 5   101.25     LegendNANA
08:00 2.1 1.2 94 0.0 26 4   101.29     LegendNANA
09:00 3.7 2.4 91 0.0 30 3   101.35     LegendNANA
10:00 7.3 3.5 77 0.0 4 1   101.36     LegendNANA
11:00 8.4 2.7 67 0.0 22 3   101.34     LegendNANA
12:00 8.6 3.8 72 0.0 9 3   101.28     LegendNANA
13:00 8.8 2.6 65 0.0 9 3   101.25     LegendNANA
14:00 8.3 2.3 66 0.0 10 5   101.18     LegendNANA
15:00 8.2 3.1 70 0.0 10 3   101.18     LegendNANA
16:00 6.9 1.5 69 0.0   0   101.19     LegendNANA
17:00 4.4 1.2 79 0.0   0   101.21     LegendNANA
18:00 3.0 1.3 88 0.0 25 2   101.20     LegendNANA
19:00 2.5 1.3 92 0.0 0 1   101.17     LegendNANA
20:00 1.7 0.7 93 0.0 27 1   101.14     LegendNANA
21:00 1.2 0.6 96 0.0 26 2   101.13     LegendNANA
22:00 1.0 0.4 96 0.0 26 4   101.10     LegendNANA
23:00 0.9 0.3 96 0.0 30 3   101.03     LegendNANA

Notes on Data Quality.

Legend

  • E = Estimated
  • M = Missing
  • NA = Not Available*
  • [empty] = Indicates an unobserved value
Date modified: